Temperature
15 15 15 14 14 15 15 15 15 15 15 16 16 16 16 16 16 16 16 17 17 17 17 17 17 17 17 17 17 17 17 17 17 17 17 17 17 17 17 17 17 18 18
14 14 14 14 14 14 14 14 15 15 15 15 15 15 15 16 16 16 16 16 17 17 17 17 17 17 17 17 17 17 17 17 17 17 17 17 17 17 17 17 17 17 17
14 14 14 14 14 14 14 14 15 14 15 15 15 15 15 15 15 16 16 16 16 17 17 17 17 17 17 17 17 17 17 17 17 17 17 17 17 17 17 17 17 17 17
14 13 13 14 13 14 14 14 14 14 15 15 15 15 15 15 15 16 16 16 16 16 17 17 17 17 17 17 17 17 17 17 17 17 17 17 17 17 17 17 17 17 17
13 13 13 13 13 13 13 14 14 14 14 14 15 15 15 15 15 15 16 16 16 16 16 17 17 17 17 17 17 17 17 17 17 17 17 17 17 17 17 17 17 17 17
13 13 13 13 13 13 13 13 13 13 14 14 15 15 15 15 15 15 16 16 16 16 16 16 16 17 17 17 17 17 17 17 17 17 17 17 17 17 17 17 17 17 17
13 13 13 13 13 13 13 13 13 13 13 14 14 15 15 15 15 15 15 16 16 16 16 16 16 16 16 17 17 17 17 17 17 17 17 17 17 17 17 17 17 17 17
13 13 13 13 13 13 13 13 13 13 13 14 14 15 15 15 15 15 15 15 16 16 16 16 16 16 16 16 17 17 17 17 17 17 17 17 17 17 17 17 17 17 17
13 13 12 12 12 13 13 13 13 13 13 13 14 14 15 16 15 15 15 15 15 15 16 16 16 16 16 16 16 17 17 17 17 17 17 17 17 17 17 17 17 17 17
13 13 13 12 12 13 13 13 13 13 13 13 13 14 14 14 15 15 15 15 15 15 15 15 16 16 16 16 16 16 17 17 17 17 17 17 17 17 17 17 17 17 17
13 13 13 13 13 13 13 13 13 13 13 13 13 13 14 14 14 15 15 15 15 15 15 15 15 15 15 16 16 16 16 17 17 17 17 17 17 17 17 17 17 17 17
13 13 13 13 13 13 13 13 13 13 13 13 13 13 13 14 14 14 15 15 15 15 15 15 15 15 15 15 16 16 16 16 16 16 16 16 16 17 17 17 17 17 17
13 13 13 13 13 13 12 13 13 13 13 13 13 13 13 13 14 14 15 15 15 14 14 15 15 15 15 15 15 16 16 16 16 16 16 16 16 16 16 17 16 17 17
13 13 13 13 13 13 13 12 13 13 12 13 13 13 13 13 13 14 14 14 14 15 15 15 14 15 15 15 15 16 16 16 16 16 16 16 16 16 16 16 16 16 16
13 13 13 13 13 13 13 13 13 13 13 13 13 13 13 13 13 13 14 14 14 15 15 14 14 14 15 15 15 15 15 16 16 16 16 16 16 16 16 16 16 16 16
13 13 13 13 13 13 13 13 13 13 13 13 13 13 13 13 13 13 13 14 14 14 15 14 14 14 14 14 15 15 15 15 15 15 15 16 16 16 16 16 16 16 16
13 13 13 13 13 13 13 13 13 13 13 13 13 13 13 13 13 13 13 13 14 14 14 14 14 14 14 14 14 14 14 15 15 15 15 15 15 16 16 16 16 16 16
14 13 13 13 13 13 13 13 13 13 13 13 13 13 13 13 13 13 13 13 13 13 14 14 14 13 13 13 14 14 14 14 14 15 15 15 15 15 15 15 15 15 15
14 14 13 13 13 13 13 13 13 13 13 13 13 13 13 13 13 13 13 13 13 13 13 13 13 13 13 13 13 13 13 14 14 14 14 14 14 15 15 15 15 15 15
14 14 13 13 13 13 13 13 13 13 13 13 13 13 13 13 13 13 13 13 13 13 13 13 13 13 13 13 13 13 13 13 13 13 13 14 14 14 14 14 14 14 14
14 13 13 13 13 13 13 13 13 13 13 13 13 13 13 13 13 13 13 13 13 13 13 13 13 13 13 13 13 13 13 13 13 13 13 13 13 13 13 13 14 14 14
14 13 13 13 13 13 13 13 13 13 13 13 13 13 13 13 13 13 13 13 13 13 13 13 13 13 13 13 13 13 13 13 13 12 12 12 12 13 13 13 13 13 13
13 13 13 13 13 13 13 14 13 13 13 13 13 13 13 13 13 13 13 13 13 13 13 13 13 13 13 13 13 12 12 12 12 12 12 12 12 12 12 12 12 13 13
13 13 13 13 13 13 14 14 13 13 13 13 13 13 13 13 12 12 12 12 12 13 13 13 13 13 12 12 12 12 12 12 12 12 12 12 12 11 11 12 12 12 12
13 13 13 13 13 13 14 14 13 13 12 13 13 13 13 12 13 13 12 12 12 12 13 13 13 13 12 12 12 12 12 12 12 12 12 11 11 11 11 11 11 11 11
13 13 13 13 13 13 13 13 13 13 13 13 13 13 13 12 12 13 12 12 12 12 12 12 12 12 12 12 12 12 12 12 12 11 11 11 11 11 11 11 10 11 11
Wind_Speed
5 4 4 4 5 5 4 5 5 5 5 5 6 6 7 7 7 6 4 3 4 5 5 5 5 5 5 6 6 6 7 7 8 9 9 9 9 9 10 11 11 11 11
4 4 5 4 5 5 5 5 6 5 5 5 6 6 6 6 7 6 6 5 6 4 4 5 5 5 6 7 7 8 9 9 9 9 10 10 9 9 9 10 10 10 10
5 5 5 5 5 5 6 5 6 5 5 5 6 6 6 6 6 6 6 6 6 7 5 5 5 6 7 7 8 9 9 10 10 10 10 10 10 10 10 10 10 10 10
5 5 5 5 5 5 5 4 5 5 5 5 5 5 5 5 7 6 6 7 6 5 6 5 5 6 6 8 9 9 10 11 11 11 11 11 10 10 11 10 10 9 9
6 5 4 5 5 5 5 5 4 5 5 5 5 4 5 5 5 6 7 6 6 5 4 6 6 6 6 8 9 9 10 11 11 11 11 12 12 11 11 11 11 10 10
5 5 4 5 5 4 4 4 5 5 5 5 6 4 4 4 4 5 5 5 5 5 4 4 6 7 8 7 8 8 10 11 12 12 12 12 13 13 12 12 11 11 10
5 5 5 5 5 4 5 5 5 5 5 5 5 4 4 4 3 3 4 4 5 4 4 4 5 5 7 10 9 8 9 10 11 13 13 12 13 13 13 12 12 11 11
5 5 6 5 4 4 5 5 4 5 4 3 4 4 3 3 3 3 3 3 4 4 4 4 4 5 5 6 8 9 8 9 10 12 12 12 12 13 13 13 12 12 12
4 5 6 6 5 5 4 5 5 5 4 3 3 3 3 3 2 2 3 3 3 3 4 3 4 4 5 5 6 9 9 8 9 10 11 12 12 13 13 13 13 13 12
4 5 5 5 5 5 5 5 4 4 5 4 3 4 4 3 2 2 3 2 2 3 3 3 3 3 4 4 5 6 9 8 8 9 10 11 11 12 13 13 13 13 13
4 4 5 5 5 5 5 5 4 4 4 4 4 3 4 4 5 3 3 3 3 2 2 3 2 2 3 3 4 6 8 8 8 9 9 10 11 12 12 13 13 13 13
4 4 4 5 5 5 5 4 4 4 4 4 4 3 3 3 4 4 3 3 3 2 2 2 2 2 2 3 3 5 6 7 7 7 8 8 9 11 11 12 12 13 13
4 4 4 5 5 5 5 4 4 4 3 4 4 3 3 4 4 4 4 3 3 2 2 2 2 2 3 4 4 6 6 6 6 7 7 7 8 8 9 10 11 12 13
4 4 5 5 5 5 5 4 4 4 4 3 3 4 4 4 3 4 4 3 3 3 4 3 3 3 2 3 3 5 6 7 6 6 7 7 7 7 8 8 9 10 10
4 5 5 5 5 5 5 5 4 4 4 4 3 4 4 3 3 3 4 4 3 4 4 4 3 3 2 2 2 4 5 7 6 6 6 7 7 8 8 9 9 8 9
5 5 5 5 5 4 4 4 5 3 4 3 3 4 4 3 3 3 4 4 4 4 2 2 2 3 2 2 2 3 3 7 6 6 5 6 6 7 7 7 7 7 8
6 6 6 6 5 5 4 4 4 4 5 4 3 4 4 3 3 3 3 4 4 4 3 2 2 3 3 3 2 2 3 4 5 6 6 6 6 6 6 6 6 7 7
6 7 6 6 5 5 5 4 4 4 5 4 4 4 4 3 4 4 3 4 4 4 4 3 3 2 2 3 3 2 2 2 3 7 6 5 5 5 5 6 6 6 6
7 7 7 6 6 6 5 5 5 5 4 4 4 5 4 4 5 4 4 4 3 3 4 4 3 3 2 3 3 2 2 2 2 5 6 6 5 4 4 4 5 5 5
8 8 7 7 7 6 6 6 5 5 4 4 4 5 5 4 4 4 4 4 4 4 4 4 3 3 3 3 3 3 3 2 2 2 2 3 5 5 5 4 4 4 4
9 9 8 8 7 7 6 6 6 5 5 4 4 4 3 2 2 2 3 3 4 4 4 4 4 3 4 4 3 3 3 2 2 1 1 2 3 3 4 5 4 3 3
9 9 9 9 8 7 4 5 7 6 6 5 4 4 3 4 4 4 2 2 3 4 4 4 4 4 4 4 3 3 3 3 2 2 0 1 1 2 2 3 5 5 4
9 9 10 10 10 9 7 8 9 8 7 6 5 5 3 3 5 4 6 6 4 3 4 5 5 4 4 4 5 5 4 3 1 2 1 1 1 2 3 6 7 6 5
9 9 10 11 10 9 9 10 10 10 8 7 7 6 6 5 4 4 5 5 4 4 4 5 4 3 3 3 4 4 3 3 2 2 1 1 1 1 2 4 8 8 7
10 10 10 11 11 11 11 12 11 9 9 9 8 7 7 6 5 4 6 5 5 4 3 3 4 4 6 4 2 4 5 4 3 3 2 1 1 1 1 2 6 8 8
10 10 10 11 12 12 10 13 14 10 10 9 8 8 6 6 6 6 8 7 6 6 5 6 5 5 5 5 3 4 4 4 3 3 3 2 2 2 1 2 2 3 4
Wind_Direction
321 323 309 313 305 309 296 289 285 285 280 274 266 256 249 243 250 251 243 201 246 250 248 234 208 194 193 186 176 175 164 159 151 144 141 137 138 139 140 140 139 139 142
320 316 311 310 309 307 307 297 286 284 276 274 270 262 257 250 247 248 251 215 208 230 244 231 212 197 194 190 188 182 176 175 166 158 154 153 151 149 150 148 145 143 145
319 313 311 311 311 306 300 295 294 287 276 270 264 260 250 249 252 248 247 240 215 196 210 228 215 197 194 192 191 187 183 178 173 169 167 165 162 161 161 160 156 153 152
325 321 313 311 311 305 302 296 291 286 279 274 272 266 254 235 243 246 244 231 231 219 187 193 204 196 194 197 196 189 187 183 179 178 178 176 175 171 169 167 165 163 160
326 323 318 315 311 304 301 296 292 292 288 285 274 261 260 249 246 242 237 229 220 221 208 169 187 193 192 194 195 192 192 188 186 186 187 186 183 179 176 176 175 173 171
327 324 311 312 314 304 302 298 294 284 288 285 280 272 257 250 239 242 242 228 221 214 214 206 200 189 187 186 187 191 194 194 194 193 193 192 188 186 185 186 185 184 181
321 319 311 317 312 306 305 301 294 284 278 286 277 266 244 239 239 231 234 231 214 206 206 206 216 209 186 181 185 193 198 199 198 198 197 193 191 193 192 192 191 190 189
317 316 318 312 310 302 296 299 293 292 287 271 271 267 241 213 217 225 217 224 222 201 215 215 213 212 216 189 170 184 195 203 206 203 198 195 194 195 196 196 196 197 197
306 312 315 312 309 303 304 298 290 282 286 273 261 266 261 238 203 205 216 213 221 214 214 218 216 215 215 200 182 176 180 197 207 207 201 197 197 197 199 200 203 202 202
299 305 306 305 304 304 301 299 294 280 275 271 254 256 272 288 248 201 197 207 214 215 211 210 209 206 216 206 180 164 170 184 200 205 206 201 200 200 202 204 205 207 207
294 297 303 304 305 302 300 298 294 281 268 269 262 252 254 258 254 244 211 199 192 194 203 210 200 198 202 208 195 168 171 182 194 199 203 204 204 205 205 206 209 211 214
288 294 298 300 302 304 300 295 288 275 270 270 266 254 252 245 243 236 232 213 197 175 184 185 190 175 177 196 198 143 163 175 185 192 199 203 207 208 208 212 216 218 220
290 298 296 298 303 304 300 295 284 280 265 266 265 260 260 258 257 248 239 219 202 190 189 184 184 174 178 180 170 155 165 172 182 189 195 199 202 206 212 218 223 223 224
293 298 293 294 297 299 296 292 282 270 268 259 257 252 253 254 255 249 245 228 212 203 197 183 174 177 176 182 147 190 170 165 175 185 191 194 198 203 210 216 220 222 224
284 288 287 286 290 293 293 291 282 270 271 266 257 243 248 248 253 250 244 238 239 224 201 181 175 165 179 167 162 194 179 151 168 178 187 192 199 206 212 216 216 216 220
278 278 281 282 287 289 287 285 284 278 270 262 258 252 245 239 234 237 242 243 246 253 236 184 171 156 157 167 159 179 147 145 161 171 182 187 193 197 201 204 208 210 213
265 270 273 277 281 284 282 278 281 269 269 265 249 246 239 243 236 227 224 231 234 233 230 200 168 157 161 168 164 162 163 171 159 157 165 172 178 184 190 197 203 209 212
261 266 269 268 273 275 273 276 278 273 269 270 261 255 241 225 233 234 225 228 225 225 223 206 180 171 172 164 160 157 157 158 153 140 150 158 165 174 182 192 197 203 212
256 257 259 262 266 267 266 264 270 269 265 265 263 258 248 234 231 221 223 223 223 219 214 207 188 173 180 171 164 157 153 141 144 140 148 158 158 158 167 176 181 189 200
256 256 255 254 255 257 259 257 258 261 260 260 259 255 249 244 245 231 223 222 216 215 210 207 194 184 177 175 178 171 161 143 139 130 119 139 146 151 158 157 163 168 178
258 256 255 253 249 250 253 258 257 255 254 252 251 250 246 260 328 287 261 232 217 218 212 207 197 192 184 181 183 176 163 153 133 124 132 145 147 150 146 151 152 148 155
260 256 253 250 248 244 225 243 258 252 249 244 243 243 228 205 201 209 250 300 289 241 223 212 207 203 197 184 172 177 170 173 160 122 144 119 132 114 94 89 90 109 124
257 255 251 248 246 237 204 214 234 251 248 246 242 237 231 216 207 204 189 198 220 250 262 243 222 211 202 188 182 186 187 183 155 131 148 146 118 95 77 75 89 96 100
261 254 253 248 244 238 208 213 220 236 242 239 236 236 229 223 207 216 207 198 199 196 210 226 221 212 198 179 189 192 170 155 144 147 187 190 147 111 96 87 85 87 89
266 257 253 250 244 237 209 211 219 233 236 235 231 231 229 224 167 203 222 208 198 184 132 96 48 75 74 77 159 174 175 185 185 167 172 187 166 154 142 131 108 103 96
265 263 257 251 247 245 215 206 219 230 233 231 226 223 215 227 175 194 218 213 208 193 177 163 161 159 163 150 186 200 192 196 188 175 160 185 182 185 177 149 133 126 109
Height
1522 1521 1520 1519 1518 1517 1516 1515 1515 1515 1515 1515 1514 1514 1515 1515 1516 1517 1517 1517 1518 1518 1519 1520 1521 1522 1522 1523 1523 1524 1526 1527 1528 1530 1531 1533 1535 1536 1538 1540 1542 1544 1545
1521 1520 1519 1518 1517 1516 1515 1514 1514 1513 1513 1513 1512 1512 1512 1513 1513 1514 1515 1515 1516 1517 1518 1519 1520 1521 1522 1523 1524 1525 1526 1527 1529 1531 1532 1534 1536 1537 1539 1541 1543 1545 1546
1520 1519 1518 1517 1516 1514 1514 1513 1512 1511 1511 1511 1510 1510 1510 1510 1511 1512 1513 1514 1515 1515 1516 1517 1519 1520 1521 1522 1523 1525 1526 1527 1529 1531 1533 1535 1537 1539 1540 1542 1544 1546 1547
1519 1518 1516 1516 1514 1513 1512 1511 1510 1510 1509 1509 1508 1508 1508 1508 1508 1510 1510 1511 1513 1514 1514 1515 1517 1518 1520 1521 1523 1524 1526 1527 1529 1531 1533 1535 1537 1539 1541 1542 1544 1546 1548
1518 1517 1515 1514 1513 1511 1510 1509 1509 1508 1508 1507 1506 1506 1506 1506 1506 1507 1508 1509 1510 1512 1513 1514 1515 1517 1518 1520 1521 1523 1525 1527 1529 1531 1533 1535 1537 1539 1541 1543 1544 1546 1548
1517 1516 1514 1513 1511 1510 1509 1508 1507 1506 1505 1505 1505 1504 1504 1504 1504 1505 1506 1507 1508 1510 1511 1513 1514 1515 1516 1518 1520 1522 1523 1526 1528 1530 1532 1534 1536 1538 1540 1542 1544 1546 1548
1516 1514 1513 1511 1509 1508 1507 1506 1505 1505 1504 1503 1503 1503 1503 1502 1503 1503 1504 1505 1506 1508 1509 1511 1512 1514 1515 1516 1518 1520 1522 1524 1526 1528 1531 1533 1535 1537 1539 1541 1543 1546 1547
1514 1513 1512 1510 1508 1507 1505 1504 1503 1502 1502 1502 1502 1502 1501 1502 1501 1502 1502 1503 1504 1506 1507 1509 1511 1512 1514 1515 1516 1518 1520 1523 1525 1527 1529 1531 1534 1536 1538 1540 1542 1544 1546
1513 1511 1510 1509 1507 1506 1504 1503 1502 1501 1500 1500 1500 1501 1500 1499 1500 1501 1501 1501 1502 1503 1505 1507 1509 1510 1512 1513 1515 1516 1518 1521 1523 1525 1527 1530 1532 1534 1536 1539 1541 1543 1545
1512 1510 1509 1507 1506 1505 1503 1502 1501 1499 1499 1499 1498 1498 1499 1499 1499 1499 1500 1500 1501 1502 1503 1505 1507 1508 1510 1511 1512 1514 1516 1519 1521 1523 1526 1528 1530 1532 1535 1537 1539 1541 1543
1511 1509 1507 1506 1505 1503 1502 1500 1499 1498 1497 1497 1497 1497 1497 1497 1498 1498 1498 1499 1500 1500 1502 1503 1504 1506 1507 1509 1511 1512 1515 1517 1519 1521 1523 1526 1528 1530 1532 1534 1536 1538 1540
1510 1509 1506 1505 1504 1502 1501 1499 1498 1497 1496 1495 1495 1495 1495 1496 1496 1497 1497 1497 1498 1499 1500 1501 1503 1504 1505 1507 1509 1511 1513 1515 1517 1519 1521 1523 1525 1527 1530 1532 1533 1536 1537
1509 1507 1505 1504 1503 1501 1499 1498 1497 1496 1495 1494 1494 1494 1494 1494 1494 1495 1496 1496 1497 1498 1499 1500 1501 1502 1504 1505 1507 1509 1511 1513 1515 1517 1519 1521 1523 1525 1527 1529 1530 1532 1534
1508 1506 1504 1502 1501 1500 1498 1497 1496 1495 1494 1493 1493 1492 1492 1493 1493 1493 1494 1495 1496 1497 1497 1498 1499 1500 1502 1504 1505 1507 1509 1511 1513 1515 1517 1518 1520 1522 1524 1525 1527 1529 1531
1505 1504 1503 1501 1500 1498 1497 1496 1495 1494 1493 1492 1492 1491 1491 1491 1491 1492 1493 1494 1495 1495 1496 1497 1497 1498 1500 1501 1502 1505 1507 1508 1510 1512 1514 1515 1517 1519 1520 1522 1524 1525 1527
1504 1502 1501 1500 1499 1497 1496 1495 1494 1492 1492 1491 1490 1490 1490 1490 1490 1490 1491 1492 1493 1494 1494 1495 1496 1496 1497 1499 1500 1502 1504 1505 1507 1509 1511 1512 1514 1515 1517 1519 1520 1522 1523
1501 1501 1500 1499 1498 1496 1495 1494 1493 1492 1491 1491 1490 1489 1489 1488 1489 1489 1489 1490 1491 1492 1493 1494 1494 1495 1496 1497 1498 1500 1502 1503 1505 1506 1508 1509 1511 1512 1514 1515 1516 1518 1519
1499 1498 1498 1497 1496 1495 1494 1493 1491 1490 1490 1489 1489 1488 1488 1487 1487 1488 1488 1489 1489 1490 1491 1492 1493 1493 1494 1496 1497 1498 1499 1501 1502 1503 1505 1506 1508 1509 1510 1511 1512 1513 1515
1496 1496 1495 1494 1494 1493 1492 1491 1490 1489 1489 1488 1487 1487 1487 1486 1486 1487 1487 1487 1488 1488 1489 1490 1491 1491 1493 1494 1495 1496 1497 1498 1500 1501 1502 1503 1505 1506 1507 1508 1509 1510 1511
1493 1493 1492 1492 1491 1490 1490 1489 1489 1488 1487 1486 1486 1485 1485 1485 1485 1485 1485 1486 1486 1487 1487 1488 1489 1490 1491 1492 1493 1494 1496 1497 1498 1499 1500 1501 1502 1503 1504 1505 1505 1506 1507
1489 1489 1489 1488 1488 1487 1487 1487 1486 1486 1485 1485 1484 1483 1483 1483 1482 1483 1484 1484 1484 1485 1485 1486 1487 1488 1489 1490 1491 1492 1494 1495 1496 1497 1498 1499 1500 1500 1501 1501 1502 1503 1504
1485 1485 1484 1484 1484 1483 1483 1483 1483 1483 1483 1483 1482 1481 1481 1480 1480 1480 1481 1481 1482 1483 1484 1485 1485 1486 1487 1488 1489 1491 1492 1494 1495 1496 1497 1498 1498 1499 1499 1499 1499 1500 1501
1481 1480 1479 1479 1479 1479 1479 1479 1479 1480 1480 1480 1480 1479 1479 1479 1478 1479 1479 1479 1480 1480 1481 1483 1484 1485 1486 1486 1488 1489 1491 1492 1493 1493 1495 1496 1497 1497 1496 1496 1497 1497 1498
1476 1475 1475 1474 1474 1474 1474 1474 1475 1476 1477 1477 1476 1476 1476 1477 1476 1477 1477 1478 1478 1479 1479 1480 1482 1483 1484 1485 1486 1488 1489 1490 1491 1492 1493 1494 1495 1495 1495 1495 1495 1495 1496
1471 1470 1469 1469 1469 1469 1469 1470 1471 1471 1472 1473 1473 1473 1473 1474 1473 1473 1475 1476 1476 1477 1477 1478 1479 1480 1481 1482 1484 1485 1487 1488 1489 1490 1491 1492 1493 1493 1494 1494 1494 1494 1494
1466 1465 1464 1463 1463 1463 1464 1464 1465 1467 1468 1468 1468 1469 1469 1470 1470 1470 1472 1473 1474 1475 1475 1476 1477 1478 1479 1480 1482 1483 1484 1486 1487 1488 1488 1490 1491 1491 1492 1492 1492 1492 1492